Naples, FL

8:15 AM EDT on June 28, 2017 (GMT -0400)
Naples Municipal

Weather History for KAPF - August, 2014

Change the Weather History Date:

Tuesday, August 12, 2014

  Actual Average Record
Temperature  
Mean Temperature 85 °F 83 °F  
Max Temperature 91 °F 91 °F 96 °F (1990)
Min Temperature 79 °F 75 °F 69 °F (1961)
Degree Days  
Heating Degree Days 0 0  
Month to date heating degree days 0 0  
Since 1 June heating degree days 0 0  
Since 1 July heating degree days 0 0  
Cooling Degree Days 20 18  
Month to date cooling degree days 228 216  
Year to date cooling degree days 2493 2310  
Since 1 June cooling degree days 1304 1282  
Growing Degree Days 35 (Base 50)    
Moisture  
Dew Point 78 °F    
Average Humidity 82    
Maximum Humidity 100    
Minimum Humidity 63    
Precipitation  
Precipitation 0.00 in 0.29 in 2.29 in (1951)
Month to date precipitation 7.77 3.34  
Year to date precipitation 31.73 31.28  
Snow  
Snow 0.00 in - - ()
Month to date snowfall 0.0  
Since 1 June snowfall 0.0  
Since 1 July snowfall 0.0  
Snow Depth 0.00 in    
Sea Level Pressure  
Sea Level Pressure 30.01 in    
Wind  
Wind Speed 7 mph (South)    
Max Wind Speed 16 mph    
Max Gust Speed 20 mph    
Visibility 10 miles    
Events      
T = Trace of Precipitation, MM = Missing Value Source: NWS Daily Summary

Daily Weather History Graph

Daily Weather History Graph

Search for Another Location

Airport or City:

Trip Planner

Search our weather history database for the weather conditions in past years. The results will help you decide how hot, cold, wet, or windy it might be!

Date:

Astronomy

Aug. 12, 2014 Rise Set
Actual Time 6:58 AM EDT 8:05 PM EDT
Civil Twilight 6:33 AM EDT 8:29 PM EDT
Nautical Twilight 6:05 AM EDT 8:58 PM EDT
Astronomical Twilight 5:35 AM EDT 9:28 PM EDT
Moon 9:33 PM EDT (8/12) 8:56 AM EDT (8/12)
Length of Visible Light 13h 55m
Length of Day
13h 07m
Waning Gibbous, 95% of the Moon is Illuminated
Aug 12
Waning Gibbous
Aug 17
Last Quarter
Aug 25
New
Sep 2
First Quarter
Sep 8
Full

Hourly Weather History & Observations

Time (EDT) Temp. Heat Index Dew Point Humidity Pressure Visibility Wind Dir Wind Speed Gust Speed Precip Events Conditions
12:53 AM 82.9 °F 93.8 °F 79.0 °F 88% 30.03 in 10.0 mi Calm Calm - N/A   Clear
1:53 AM 82.0 °F 91.6 °F 79.0 °F 90% 30.02 in 10.0 mi Calm Calm - N/A   Clear
2:53 AM 82.0 °F 91.0 °F 78.1 °F 88% 30.00 in 10.0 mi Calm Calm - N/A   Clear
3:53 AM 82.0 °F 91.0 °F 78.1 °F 88% 29.99 in 10.0 mi Calm Calm - N/A   Mostly Cloudy
5:53 AM 80.1 °F 86.4 °F 78.1 °F 94% 29.99 in 10.0 mi East 4.6 mph - N/A   Partly Cloudy
6:53 AM 80.1 °F 86.4 °F 78.1 °F 94% 30.00 in 10.0 mi East 3.5 mph - N/A   Scattered Clouds
8:53 AM 84.9 °F 92.1 °F 73.9 °F 69% 30.02 in 10.0 mi SSE 4.6 mph - N/A   Partly Cloudy
9:53 AM 87.1 °F 101.5 °F 79.0 °F 77% 30.03 in 10.0 mi SE 12.7 mph - N/A   Clear
10:53 AM 88.0 °F 100.2 °F 77.0 °F 70% 30.04 in 10.0 mi South 5.8 mph - N/A   Clear
11:53 AM 89.1 °F 101.4 °F 77.0 °F 67% 30.04 in 10.0 mi South 10.4 mph - N/A   Clear
1:53 PM 90.0 °F 105.8 °F 79.0 °F 70% 30.03 in 10.0 mi SW 11.5 mph - N/A   Clear
2:53 PM 90.0 °F 107.9 °F 80.1 °F 73% 30.00 in 10.0 mi SSW 11.5 mph - N/A   Scattered Clouds
3:53 PM 90.0 °F 105.8 °F 79.0 °F 70% 29.99 in 10.0 mi SW 11.5 mph - N/A   Scattered Clouds
4:53 PM 90.0 °F 102.5 °F 77.0 °F 65% 29.99 in 10.0 mi WSW 11.5 mph - N/A   Scattered Clouds
5:53 PM 89.1 °F 103.2 °F 78.1 °F 70% 29.98 in 10.0 mi SW 10.4 mph - N/A   Partly Cloudy
6:53 PM 89.1 °F 103.2 °F 78.1 °F 70% 29.98 in 10.0 mi SW 11.5 mph - N/A   Clear
7:53 PM 87.1 °F 99.8 °F 78.1 °F 74% 29.97 in 10.0 mi SW 8.1 mph - N/A   Clear
8:53 PM 86.0 °F 99.3 °F 79.0 °F 79% 29.99 in 10.0 mi SSW 5.8 mph - N/A   Partly Cloudy
9:53 PM 86.0 °F 99.3 °F 79.0 °F 79% 30.00 in 10.0 mi South 4.6 mph - N/A   Clear
10:53 PM 84.9 °F 97.5 °F 79.0 °F 82% 30.01 in 10.0 mi SSE 4.6 mph - N/A   Clear
11:53 PM 84.0 °F 97.3 °F 80.1 °F 88% 30.01 in 10.0 mi ESE 4.6 mph - N/A   Clear